Home   Weather   Stirling   Past weeks
Flag for United Kingdom

Past Weather in Stirling, Scotland, United Kingdom — Yesterday and Last 2 Weeks

Now
35 °F

Chilly.


Feels Like: 31 °F
Forecast: N/A
Wind: 5 mph from Southwest

Location: Strathallan

Current Time: Jan 27, 2020 at 9:28:02 pm

Latest Report: Jan 27, 2020 at 8:00 pm


Visibility: 22 mi

Pressure: 29.12 "Hg

Humidity: 83%

Dew Point: 30 °F

Location of StirlingLocation

Past Weather in Stirling — Graph

°F

Stirling Temperature Yesterday

Maximum temperature yesterday: 47 °F (at 8:00 am)
Minimum temperature yesterday: 31 °F (at 10:00 pm)
Average temperature yesterday: 42 °F

High & Low Weather Summary for the Past Weeks

 TemperatureHumidityPressure
High52 °F (Jan 22, 1:00 pm)98% (Jan 27, 12:00 am)30.78 "Hg (Jan 27, 12:00 am)
Low31 °F (Jan 26, 10:00 pm)62% (Jan 18, 3:00 pm)28.76 "Hg (Jan 13, 7:00 pm)
Average43 °F84%29.89 "Hg
* Reported Jan 12 8:00 pm — Jan 27 8:00 pm, Stirling. Weather by CustomWeather, © 2020

Note: Actual official high and low records may vary slightly from our data, if they occured in-between our weather recording intervals... More about our weather records

Stirling Weather History for the Previous 24 Hours

Scroll right to see more
 ConditionsComfort  
Time TempWeatherWind HumidityBarometerVisibility
8:00 pm
Mon, Jan 27
35 °FChilly.5 mph83%29.12 "Hg22 mi
7:00 pm35 °FChilly.5 mph83%29.15 "Hg28 mi
6:00 pm38 °FChilly.3 mph77%29.15 "Hg28 mi
5:00 pm38 °FChilly.5 mph79%29.18 "Hg31 mi
4:00 pm39 °FChilly.3 mph74%29.18 "Hg31 mi
3:00 pm40 °FChilly.9 mph71%29.18 "Hg31 mi
2:00 pm41 °FQuite cool.14 mph70%29.21 "Hg31 mi
1:00 pm40 °FQuite cool.16 mph74%29.21 "Hg14 mi
12:00 pm37 °FLots of rain. Cloudy.12 mph85%29.21 "Hg6 mi
11:00 am38 °FChilly.13 mph83%29.21 "Hg28 mi
10:00 am36 °FChilly.3 mph80%29.23 "Hg31 mi
9:00 am37 °FChilly.13 mph76%29.23 "Hg31 mi
8:00 am38 °FChilly.15 mph78%29.23 "Hg31 mi
7:00 am39 °FChilly.12 mph84%29.21 "Hg31 mi
6:00 am39 °FLight rain. Overcast.10 mph87%29.23 "Hg22 mi
5:00 am39 °FChilly.7 mph87%29.23 "Hg31 mi
4:00 am34 °FChilly.3 mph94%29.26 "Hg18 mi
3:00 am37 °FChilly.5 mph90%29.29 "Hg31 mi
2:00 am34 °FFog.5 mph91%29.32 "Hg4 mi
1:00 am33 °FChilly.3 mph94%29.38 "Hg19 mi
12:00 am33 °FChilly.2 mph98%29.41 "Hg17 mi
11:00 pm
Sun, Jan 26
31 °FChilly.5 mph97%29.44 "Hg14 mi
10:00 pm31 °FChilly.2 mph95%29.47 "Hg12 mi
9:00 pm33 °FChilly.3 mph93%29.47 "Hg19 mi
Weather by CustomWeather, © 2020

See weather overview

Advertising